Wind_Speed
18 18 18 17 19 19 20 21 21 22 22 21 21 21 21 18 12 9 13 18 22 26 29 31 30 24 17 19 23 25 29 34 34 31 29 30 33 34 32 31 30 32 34 35 36 36 34 32 29 26 26 29 30 29 29 29 29 29 30 30 30 30 30 30 29 28 28 28 26 25 25 24 24 24 24 24 23 23 22 23 23 24 25 26 26 25
19 18 17 18 21 21 22 23 23 23 22 20 20 21 22 20 16 17 20 23 27 30 31 31 31 31 25 21 22 26 32 38 38 35 31 29 31 34 34 31 30 33 35 36 37 36 34 32 29 25 24 28 30 28 28 27 27 28 28 28 29 29 29 29 28 27 27 27 26 25 24 24 24 24 24 24 23 22 22 22 22 23 23 24 25 24
20 18 18 21 23 22 22 23 22 23 21 20 21 21 23 22 20 22 26 28 31 33 33 33 32 34 32 25 22 25 30 37 42 40 33 29 30 32 33 31 30 32 34 36 38 37 36 32 28 25 23 26 28 26 26 26 26 27 27 27 27 27 28 29 28 27 26 26 26 25 24 24 24 24 23 24 23 23 22 22 22 22 23 23 23 24
21 20 21 24 24 22 22 23 24 24 21 20 22 22 23 23 23 25 29 33 35 35 37 36 34 35 34 29 23 24 28 33 41 43 36 31 29 30 31 32 33 32 31 33 36 37 37 32 26 23 22 25 27 24 24 25 26 26 26 25 26 26 27 28 28 28 26 26 26 25 25 24 24 24 23 23 24 23 23 22 22 22 23 23 23 24
21 21 22 23 23 22 23 25 26 24 22 22 22 22 22 23 26 27 31 36 37 39 40 37 36 35 32 29 26 26 30 32 35 40 39 33 30 30 30 32 34 32 31 32 33 35 36 32 26 22 22 24 25 25 25 25 25 25 25 24 25 25 26 27 28 28 27 26 26 26 25 25 25 24 24 24 24 24 24 24 23 23 23 23 23 24
23 22 22 23 23 22 24 26 26 24 23 24 23 23 23 24 25 27 32 36 38 40 39 37 39 38 31 29 29 28 31 32 32 36 38 33 29 29 30 31 33 32 30 31 32 34 36 32 26 22 22 24 25 25 26 25 24 24 24 24 24 25 26 27 27 28 28 27 26 26 26 25 25 25 25 24 24 24 24 25 24 24 23 23 23 23
24 24 24 24 24 24 26 27 27 26 25 26 25 24 26 26 26 29 32 36 39 40 39 39 41 39 33 28 28 29 28 28 29 30 32 30 25 23 26 28 30 30 28 29 30 33 34 32 27 23 22 24 25 26 25 25 25 24 24 24 23 24 25 27 27 27 27 27 26 26 26 26 26 26 26 25 25 25 25 25 26 25 25 25 24 24
22 24 26 25 24 25 24 24 24 26 28 28 28 27 28 30 31 32 34 37 41 41 39 38 37 37 31 21 21 26 26 25 25 24 23 22 19 17 21 24 26 26 26 26 28 30 32 31 28 24 23 24 26 25 25 25 25 25 25 24 23 24 25 27 27 26 26 27 26 25 25 26 26 27 27 26 26 26 26 26 26 26 26 26 26 25
20 24 27 25 23 23 21 20 21 23 26 26 26 27 28 29 30 31 33 33 34 34 33 30 27 30 25 15 16 20 18 19 21 22 20 17 17 17 18 22 23 24 24 24 25 28 29 29 28 25 24 24 26 25 24 25 26 26 25 24 24 24 25 26 26 25 25 26 26 26 25 25 26 26 27 27 27 27 26 27 27 27 27 27 27 27
17 20 24 23 20 19 18 19 21 21 22 22 21 22 22 22 22 24 26 24 24 27 26 19 18 25 22 13 14 13 11 13 16 20 20 19 22 20 17 17 19 22 23 23 24 25 26 27 27 26 24 24 25 25 25 25 27 27 25 24 24 24 24 25 25 25 25 25 26 26 25 25 26 26 26 27 27 27 27 27 27 28 28 28 29 28
14 15 21 21 18 17 17 20 22 21 21 20 18 18 18 17 17 19 19 19 23 24 18 13 14 22 22 14 11 11 12 15 17 18 19 23 26 23 17 15 16 18 19 20 22 23 24 25 25 25 24 24 25 25 25 25 27 27 26 24 24 24 23 23 24 24 24 24 25 26 26 26 26 26 26 27 27 28 28 28 28 28 29 29 30 30
15 17 21 21 18 19 20 21 21 21 21 19 17 17 16 16 16 18 18 20 24 21 13 12 15 20 23 16 9 11 12 14 16 15 17 22 26 24 20 17 17 19 20 22 23 23 24 24 23 22 23 24 25 25 24 25 27 27 26 24 24 24 23 22 24 24 24 24 25 25 26 27 27 27 27 27 28 28 29 29 29 29 30 30 30 31
18 19 20 21 19 18 18 19 19 18 19 18 15 15 16 16 17 20 20 21 23 19 13 12 15 20 23 18 10 13 16 16 17 15 16 20 23 25 25 22 22 23 23 24 25 24 24 24 23 22 23 25 25 25 25 25 26 26 26 25 24 24 23 22 23 24 24 24 24 25 26 27 27 27 28 28 28 29 29 29 29 30 30 30 30 31
20 19 19 19 18 16 16 15 16 17 18 17 15 15 16 16 17 19 19 20 20 19 16 15 18 22 22 18 13 14 19 22 20 16 17 21 22 25 27 26 26 27 25 25 27 27 26 25 25 25 25 27 27 27 27 27 27 26 26 25 24 24 23 22 23 24 24 24 25 24 25 27 28 27 28 28 28 28 29 29 29 29 30 30 30 30
20 18 18 17 16 18 18 13 12 14 17 19 17 17 18 16 16 16 17 18 18 20 21 20 22 23 19 16 13 12 16 21 22 17 16 19 20 22 26 28 30 30 30 30 30 31 30 28 27 27 28 29 29 29 29 29 29 28 28 26 25 24 23 22 22 24 25 25 25 25 25 26 27 27 27 28 28 28 29 29 29 29 30 31 31 31
21 18 16 15 15 19 19 14 15 16 17 19 18 18 19 17 17 19 19 20 22 24 24 22 23 23 21 19 16 14 15 18 22 22 20 23 24 24 26 31 34 34 32 30 30 30 31 29 26 25 25 27 28 29 30 30 29 29 29 28 27 26 24 23 23 24 26 25 26 26 27 27 28 28 28 29 29 29 29 30 31 31 31 32 32 33
24 22 18 17 17 18 15 14 20 21 17 18 18 17 17 17 18 22 22 22 24 27 26 23 24 23 23 24 21 18 18 19 22 23 23 26 27 29 30 32 34 32 27 27 29 29 28 28 26 23 21 22 23 25 27 29 30 29 29 29 29 28 27 25 25 25 26 26 27 28 29 29 30 30 30 31 31 30 31 32 32 32 33 33 33 34
23 22 19 18 18 17 14 15 22 24 21 19 20 20 18 19 21 22 24 26 28 30 28 25 25 24 24 25 22 21 21 20 20 21 22 23 25 27 28 28 30 30 27 26 28 28 27 27 26 24 20 19 19 21 24 27 29 29 29 29 30 30 29 28 27 27 28 29 29 30 31 31 31 31 31 32 32 32 32 33 34 34 34 35 35 35
24 23 21 21 20 20 21 24 27 27 26 24 23 23 22 22 24 24 26 29 32 34 33 31 30 28 28 28 25 24 23 21 21 22 22 22 23 25 25 24 28 30 27 26 27 28 29 26 24 24 23 22 20 21 24 26 28 28 28 29 31 31 31 29 28 28 30 31 32 32 33 33 33 33 33 33 34 34 34 35 36 36 37 37 37 37
30 30 28 25 24 26 26 27 28 27 27 24 22 22 24 25 27 28 30 32 34 37 37 35 33 29 27 28 28 27 26 26 26 26 26 26 26 27 29 30 32 31 27 25 27 28 28 26 25 27 28 27 24 24 25 25 25 26 27 28 30 31 31 31 29 29 31 33 33 33 33 33 33 34 34 35 35 36 36 37 37 38 38 39 39 39
36 37 36 31 28 29 29 28 29 28 27 25 24 26 28 29 31 32 34 35 36 38 37 37 35 29 26 29 29 28 27 27 28 29 30 32 31 30 32 34 35 34 31 29 29 29 29 30 31 32 32 30 28 26 26 25 25 25 26 27 27 28 29 28 28 28 30 32 33 33 33 33 33 33 34 35 36 37 37 38 39 39 40 40 41 41
39 39 39 36 32 32 31 30 29 30 30 28 29 31 33 34 34 34 36 36 35 37 36 36 37 31 25 26 27 28 29 29 30 32 32 33 34 33 34 35 35 33 33 33 33 33 34 34 33 33 33 31 29 28 27 28 29 29 28 28 28 27 27 26 26 27 29 31 31 32 32 33 33 33 34 35 36 37 38 39 40 41 41 42 42 43
41 39 38 38 36 36 35 33 30 30 30 29 30 32 34 36 36 36 38 37 36 37 35 36 39 32 24 25 28 30 32 31 31 33 34 35 35 35 36 37 36 35 34 36 35 35 36 36 34 34 34 32 30 31 31 30 32 32 32 31 30 30 30 30 30 29 29 30 31 31 32 32 33 33 34 35 37 38 40 41 42 43 43 43 44 44
42 41 41 40 40 39 38 36 32 30 30 32 34 34 35 36 38 39 42 42 41 42 39 40 43 36 30 33 35 34 35 36 36 38 40 40 39 37 36 36 37 38 37 37 37 38 39 39 39 39 39 36 35 37 36 34 34 34 34 35 34 33 34 34 34 33 31 31 32 32 32 33 33 35 36 37 39 40 41 42 43 44 44 45 45 45
42 43 44 44 43 42 40 37 34 32 33 36 36 37 37 38 39 41 43 44 46 45 43 44 45 40 37 38 37 35 37 40 41 42 42 42 40 39 38 37 37 38 39 39 40 41 40 41 41 42 41 40 38 40 39 35 32 31 33 35 37 37 38 39 38 36 33 32 33 33 33 34 35 36 37 39 40 41 42 42 43 43 44 44 45 45
44 44 44 44 44 44 42 38 36 35 36 38 38 38 39 39 40 40 41 43 43 42 42 44 44 41 39 39 37 35 36 37 39 41 41 41 42 42 42 40 39 39 40 40 42 43 43 43 42 42 43 41 41 42 42 39 35 33 32 34 37 39 41 42 42 39 36 35 35 36 36 36 36 37 38 39 40 41 41 42 42 42 43 43 43 43
45 44 44 45 45 45 44 42 40 39 39 40 40 40 40 39 40 41 41 42 43 44 46 46 46 45 42 39 38 39 41 42 43 43 44 45 45 45 45 44 44 44 43 42 42 44 45 45 45 45 45 46 46 47 47 45 44 43 40 39 40 43 44 44 43 42 41 39 38 38 37 37 37 38 39 40 40 41 41 41 41 41 41 41 42 42
43 42 42 43 43 43 43 43 42 41 41 42 42 41 40 41 42 44 44 45 45 48 49 47 48 49 45 42 42 44 46 47 48 48 48 48 48 49 49 49 48 49 49 48 46 46 47 48 48 47 47 49 50 51 49 49 49 48 47 44 43 44 45 44 44 44 43 41 40 38 36 36 37 38 40 40 40 40 40 40 40 40 40 40 40 40
43 43 42 41 41 41 43 43 43 42 42 42 42 41 40 42 43 45 46 46 47 49 50 47 47 49 47 44 45 47 49 51 51 51 50 50 50 51 52 52 52 52 53 52 51 50 51 52 53 52 51 52 54 55 53 51 51 51 49 46 45 45 45 45 46 45 43 42 40 38 37 36 37 38 39 39 39 39 39 39 39 39 39 38 37 37
45 46 45 43 41 41 42 43 43 43 42 42 42 41 42 43 44 44 45 45 46 47 48 47 48 49 47 45 47 49 51 52 52 52 51 51 52 52 53 54 54 54 55 55 55 54 54 55 56 56 55 55 57 58 57 54 53 53 53 50 49 47 46 47 48 46 44 42 40 39 38 37 37 38 38 38 38 39 38 38 38 38 38 38 36 37
45 46 46 45 43 42 42 43 43 42 42 42 41 41 43 43 42 41 42 42 43 45 45 46 48 49 45 45 48 49 50 51 51 51 51 52 53 53 53 54 54 54 54 55 56 56 55 55 56 57 57 57 58 59 60 59 57 56 55 54 52 51 49 49 48 44 43 42 41 40 39 38 38 38 38 38 38 39 39 39 39 39 39 38 37 37
43 43 44 45 46 45 44 43 42 42 41 41 42 42 42 41 39 39 40 41 43 44 44 45 47 47 45 46 49 49 49 50 50 50 50 51 52 53 54 54 55 55 56 56 56 57 57 57 57 58 58 58 59 59 60 61 60 59 58 56 55 54 52 49 47 44 42 41 41 40 39 39 38 38 38 38 39 39 39 39 39 40 39 38 38 39
40 41 42 44 46 45 44 44 42 42 42 42 41 40 39 39 41 42 42 42 42 43 44 45 45 45 45 47 48 48 48 49 50 51 51 52 52 54 54 55 56 57 58 57 57 56 57 57 58 59 59 58 58 59 60 61 61 61 60 58 57 57 53 49 47 46 43 41 40 40 39 39 39 39 39 40 40 39 39 39 39 40 39 38 38 40
40 40 42 43 44 44 44 43 42 43 44 42 39 38 40 41 42 43 43 42 42 42 43 44 44 44 45 46 47 48 47 47 48 49 48 49 50 51 51 51 52 53 54 54 54 53 54 55 56 56 57 58 58 58 60 61 61 61 61 59 59 59 55 50 49 46 41 40 40 39 39 39 40 41 41 41 41 40 39 39 40 40 39 39 39 41
40 39 40 41 43 43 42 42 43 44 42 39 39 40 42 42 42 43 42 41 41 41 41 41 43 44 45 45 45 46 46 44 44 43 43 44 45 47 49 50 50 50 50 50 51 51 51 52 53 53 53 55 57 58 59 61 61 61 61 58 58 59 56 52 52 47 41 39 38 37 38 40 41 42 43 42 42 41 40 40 41 41 40 40 41 42
40 39 39 40 41 42 42 42 44 44 41 40 43 43 41 41 40 40 40 39 38 38 38 39 40 40 41 41 42 44 44 43 41 41 43 45 47 48 51 52 53 52 51 51 52 53 53 53 54 54 53 54 55 57 58 59 60 60 60 57 56 58 57 55 53 47 39 36 35 36 38 40 42 43 43 43 42 42 42 42 42 42 41 41 43 44
37 38 38 38 39 39 40 41 42 43 43 42 41 38 37 38 38 38 39 39 38 37 37 37 38 38 39 40 40 42 43 44 44 43 45 48 49 50 52 53 54 54 54 54 54 54 53 52 52 52 53 53 53 53 55 57 57 57 58 57 57 58 58 56 52 45 38 35 36 38 40 41 43 43 43 43 43 43 43 43 43 42 42 43 45 46
36 36 35 35 37 38 38 39 40 41 41 39 37 36 38 39 39 39 39 38 38 39 38 38 39 40 41 41 42 44 45 47 47 45 44 46 48 49 50 50 50 50 50 51 51 50 49 48 46 46 47 49 50 50 51 53 53 54 55 54 54 56 58 57 54 50 43 39 39 41 42 42 43 43 43 43 43 44 44 44 44 43 43 45 47 48
35 34 33 34 36 37 37 38 39 38 37 36 37 39 40 39 39 38 38 38 39 40 40 40 41 41 41 43 44 45 47 48 47 44 43 44 45 47 48 46 44 44 44 45 45 44 42 41 41 42 42 43 45 47 48 49 49 51 53 51 48 50 54 57 58 55 48 41 39 41 42 43 43 43 43 44 45 45 45 44 44 44 45 47 49 50
30 30 31 34 35 35 34 36 38 39 38 36 37 38 39 38 38 38 38 40 40 41 42 42 42 42 43 44 45 45 46 47 46 45 45 44 43 43 44 42 41 40 40 40 40 40 39 39 39 40 40 40 40 42 44 46 47 48 49 49 46 46 50 53 53 51 46 40 40 41 42 41 42 43 44 45 46 45 45 44 44 45 46 49 51 52
29 29 30 33 35 35 35 37 39 41 40 37 36 38 37 37 38 39 39 40 41 43 44 44 45 45 46 47 47 46 45 46 46 46 46 45 43 40 39 38 37 36 37 38 38 38 39 40 40 39 39 39 38 39 41 44 44 43 44 45 46 49 51 49 47 46 43 39 39 40 40 41 43 45 45 46 45 45 44 44 45 46 48 50 52 52
33 32 32 33 35 37 39 40 41 42 41 38 37 39 37 35 37 40 41 42 43 44 46 47 47 47 47 48 48 47 47 47 48 47 46 45 44 41 39 38 37 36 36 36 36 36 37 39 39 36 34 35 37 37 37 38 38 38 39 41 44 47 48 46 45 44 40 36 37 40 41 44 45 45 45 45 44 43 44 44 46 47 49 50 51 51
35 35 35 35 36 37 39 39 40 41 41 39 39 41 40 40 42 44 44 44 45 46 47 47 46 46 48 49 49 48 47 46 47 46 44 42 41 41 39 38 38 36 34 34 35 34 34 36 35 31 29 31 33 33 33 35 37 38 40 45 47 43 37 36 37 37 34 35 37 39 41 42 42 42 42 42 42 42 43 45 46 47 48 48 49 50
36 36 38 38 37 38 40 41 40 41 41 41 42 43 44 44 45 47 48 47 46 46 45 45 45 46 46 46 45 45 44 44 44 42 40 39 39 38 36 36 37 35 32 32 34 33 32 33 32 29 27 27 27 30 32 36 41 43 44 47 47 39 32 30 31 31 31 34 36 36 37 37 37 38 39 40 41 42 43 44 45 46 47 48 49 49
38 38 39 40 39 40 42 42 41 40 39 40 42 44 46 46 47 48 49 48 48 47 47 47 48 47 45 43 43 42 42 42 40 38 36 35 35 34 33 33 33 33 31 31 32 31 30 29 28 28 27 26 29 32 31 31 34 35 33 33 33 32 31 31 31 31 31 32 33 32 33 33 34 36 37 38 39 41 42 43 45 47 48 48 48 48
41 42 43 43 43 43 44 43 42 41 41 42 44 46 48 50 50 50 49 49 49 48 48 49 48 46 44 42 41 39 38 38 37 34 32 31 30 30 30 29 30 31 30 29 29 29 28 27 27 27 25 27 33 34 30 26 26 25 23 23 26 28 30 31 31 31 30 29 29 29 30 31 32 34 35 36 38 40 42 43 45 46 47 47 46 46
44 44 44 42 42 44 45 43 42 43 44 46 47 48 49 50 51 51 50 50 49 47 46 46 44 42 40 37 36 35 34 34 34 32 30 28 27 27 26 25 26 27 26 23 22 22 25 28 26 20 15 19 26 29 27 24 22 21 21 22 24 26 28 29 29 28 26 25 26 27 28 29 30 32 34 36 38 40 42 43 44 44 44 44 44 44
45 43 42 41 41 44 45 44 43 43 45 46 47 47 48 49 50 49 49 48 47 44 42 40 39 38 35 32 30 30 30 30 30 29 27 25 24 24 23 22 23 22 19 17 14 13 17 22 20 18 13 14 18 21 22 23 22 20 20 21 23 25 26 26 24 23 22 23 24 24 25 27 29 32 34 36 38 40 41 41 41 41 41 41 41 42
41 40 40 39 40 42 43 42 42 44 44 43 43 42 43 43 43 42 41 40 40 40 39 36 34 34 32 29 27 27 27 27 26 26 25 24 22 22 21 20 19 17 15 16 16 14 14 16 18 19 17 17 17 18 19 22 20 19 20 21 22 23 22 21 19 19 20 21 22 22 25 27 30 32 34 36 37 37 38 38 38 38 38 39 40 41
33 35 35 36 39 40 38 36 37 40 39 36 35 34 33 33 34 34 33 32 31 33 35 34 32 32 31 28 26 26 25 24 23 24 24 23 21 21 19 18 17 16 16 19 20 17 15 13 13 13 13 14 15 15 17 17 17 16 17 19 20 20 18 17 18 18 19 20 22 23 25 27 29 31 33 34 34 34 34 34 34 34 36 37 39 41
28 31 32 34 37 37 34 31 32 34 33 30 30 31 29 29 30 30 30 29 27 27 28 30 30 30 30 28 27 27 24 22 22 22 23 22 20 20 18 17 16 16 16 17 17 15 14 12 11 10 11 13 13 13 14 15 16 16 15 16 17 17 16 17 17 18 20 21 22 24 25 26 28 29 30 31 31 30 31 31 32 33 34 36 38 41
Wind_Direction
247 249 252 253 253 250 251 253 250 251 256 260 260 256 258 260 240 212 221 239 258 266 267 270 274 270 253 254 264 267 269 269 267 268 270 273 276 278 278 278 279 275 270 267 266 266 265 264 264 266 271 272 272 271 271 271 270 271 270 271 272 272 273 272 271 271 270 271 270 268 266 264 263 262 261 261 260 259 258 257 256 257 258 259 259 259
251 251 253 251 250 249 250 251 250 255 259 261 262 257 254 249 232 233 238 233 239 249 255 260 269 275 267 251 252 263 273 277 275 273 272 274 276 278 279 280 279 275 274 272 271 270 268 268 268 268 269 269 268 269 269 268 267 267 267 268 270 271 271 271 270 270 269 270 269 267 265 264 263 262 261 261 259 258 256 255 254 254 255 257 258 259
253 250 251 249 248 250 253 255 254 255 255 252 252 250 248 242 231 236 246 245 241 240 244 254 265 274 275 269 260 258 264 271 275 274 273 274 274 276 279 279 275 273 275 275 275 274 271 270 270 269 269 267 267 266 265 265 264 264 265 266 267 269 270 271 271 269 268 268 268 267 266 264 263 262 262 261 261 259 256 253 251 251 252 254 256 258
256 253 251 251 252 254 255 256 256 256 253 247 246 247 243 239 232 230 238 246 247 245 248 258 267 270 275 280 276 266 262 262 269 274 273 272 273 275 276 276 274 272 273 273 275 275 274 273 272 270 266 265 267 265 261 261 262 262 264 264 265 266 267 269 270 270 268 267 267 267 266 265 263 262 261 261 261 260 258 255 251 249 249 250 252 254
259 257 255 256 256 256 256 256 258 258 254 249 248 248 244 240 238 235 237 243 248 254 262 269 273 272 274 278 275 269 266 263 266 271 272 272 272 273 273 272 272 272 271 271 272 274 275 276 274 269 263 263 265 264 261 260 260 261 263 263 264 265 265 267 268 270 269 267 266 266 266 265 263 263 261 260 259 259 259 257 255 252 249 248 249 251
257 257 257 258 257 256 256 258 259 258 255 253 252 250 247 244 242 241 242 248 253 260 267 273 274 274 274 275 275 271 269 268 267 268 271 273 272 271 269 267 269 269 268 268 270 272 274 275 274 269 263 262 263 263 263 262 261 261 262 262 263 264 265 265 266 267 268 267 265 265 264 264 262 262 261 260 259 258 258 257 257 255 252 249 248 249
263 265 264 262 263 261 260 260 261 261 260 257 254 252 251 248 245 244 245 250 256 261 265 268 271 274 275 275 276 272 268 268 268 268 272 275 271 266 264 262 264 266 265 265 266 269 272 273 273 271 266 264 265 265 266 265 264 264 263 263 263 263 263 263 263 264 265 265 264 262 261 261 261 260 259 258 257 257 256 256 256 257 256 254 251 249
264 265 266 265 265 267 269 270 265 261 259 256 254 253 254 254 253 251 249 251 256 261 266 267 268 271 274 273 268 266 266 265 264 262 266 273 270 254 249 251 257 264 265 264 265 266 269 272 273 272 270 269 268 269 270 269 268 267 266 265 263 261 261 261 261 262 263 263 262 260 258 257 257 257 257 256 255 254 254 255 255 256 256 257 255 252
259 261 265 268 268 270 275 275 267 260 257 257 258 256 255 256 257 256 255 256 259 263 266 267 266 268 273 272 257 257 266 274 275 270 264 266 267 256 246 245 247 254 259 261 264 265 269 272 274 274 274 272 272 272 272 271 271 270 268 266 264 261 260 261 261 261 262 262 262 260 257 255 254 253 254 254 253 252 251 253 254 255 256 257 258 257
267 262 261 268 274 274 272 268 266 265 262 261 260 259 258 258 258 259 259 262 263 263 267 271 269 270 271 253 235 239 255 269 273 274 273 272 273 271 265 260 254 251 254 259 263 266 269 272 274 275 276 274 274 273 273 272 271 270 268 266 264 262 261 261 261 261 261 261 262 261 258 255 254 253 252 253 253 251 250 250 251 253 255 257 258 259
272 258 256 269 278 274 268 265 267 269 268 266 264 261 260 258 257 256 255 257 259 263 273 274 262 267 268 248 224 228 245 257 259 266 273 272 273 272 267 264 259 255 257 261 264 265 267 270 272 275 277 276 273 273 273 271 270 269 268 266 264 262 261 261 260 259 258 259 260 261 261 259 257 255 254 253 254 253 252 251 250 250 251 253 255 257
260 257 261 270 272 269 266 265 268 270 268 268 266 263 261 259 258 257 253 253 257 261 270 265 251 255 262 256 225 213 233 257 262 260 263 265 268 271 268 255 246 254 264 266 265 264 265 268 270 272 274 274 273 273 273 271 270 270 269 267 264 262 261 260 260 259 258 257 257 258 260 260 258 257 255 253 253 254 253 252 251 251 250 250 251 253
256 257 264 270 270 269 267 266 267 267 267 269 267 264 266 264 261 261 260 259 262 263 258 254 248 249 258 262 237 209 217 239 250 244 245 260 271 275 275 266 256 262 270 271 270 266 264 266 268 269 271 272 274 274 274 273 272 271 270 268 266 263 261 259 260 260 259 258 257 257 258 259 258 256 255 253 251 251 251 250 250 250 250 250 250 251
262 260 264 272 273 267 265 267 266 264 262 260 256 257 262 264 263 266 269 268 271 272 264 256 252 252 257 264 255 225 219 230 242 247 246 253 265 273 277 278 277 278 280 282 281 277 270 269 271 273 272 272 274 274 274 274 273 272 271 270 268 265 263 260 259 260 260 259 257 256 257 258 258 257 255 253 251 250 249 249 248 248 248 248 248 249
268 265 266 273 273 268 267 263 256 256 257 257 256 257 258 260 263 267 269 268 264 262 262 261 260 261 262 263 258 236 227 232 236 241 249 248 251 263 273 280 284 286 289 289 286 283 281 277 276 276 275 273 273 273 273 273 273 272 272 271 269 267 265 263 261 260 260 260 258 257 256 256 257 257 257 256 254 253 252 252 252 252 251 251 250 250
267 262 260 260 257 262 269 270 260 254 257 264 266 264 267 274 278 273 271 271 267 262 263 262 260 266 272 272 267 255 254 258 251 247 257 262 261 264 271 276 280 284 288 287 283 282 283 282 280 278 276 274 273 272 272 271 271 272 273 272 270 269 267 265 263 261 260 260 260 258 257 256 256 257 257 258 259 259 260 259 258 258 258 258 257 256
263 260 254 249 252 258 267 277 273 264 255 253 253 253 259 264 268 271 274 273 269 266 267 265 262 266 272 273 275 275 274 276 272 267 267 264 261 264 266 267 271 276 281 281 280 280 282 285 286 284 280 279 277 275 273 271 270 271 272 272 270 269 268 265 263 262 261 261 261 260 259 258 258 258 260 261 262 263 265 265 265 265 265 265 265 264
262 264 258 254 259 260 252 249 257 260 258 254 253 254 254 251 253 261 268 270 269 269 270 269 266 266 268 271 274 279 279 274 271 269 266 256 249 256 263 263 266 271 273 273 275 278 283 285 285 285 284 283 281 278 275 273 272 271 270 271 269 268 267 266 265 265 264 264 262 262 261 261 261 262 263 264 265 266 267 267 268 268 269 269 269 269
268 268 261 256 259 257 251 246 246 250 259 267 267 263 258 254 253 254 258 262 266 270 272 271 269 267 269 272 272 271 270 266 259 254 253 250 245 248 255 259 263 266 265 263 264 272 282 282 278 281 285 283 281 279 277 275 275 275 273 272 271 270 269 269 269 268 267 266 265 265 264 264 265 266 266 267 268 268 269 270 270 271 271 271 270 270
273 272 262 257 257 256 254 254 255 258 266 272 271 266 258 251 252 255 256 257 260 266 271 274 273 269 267 270 270 267 264 261 259 253 250 253 253 251 254 257 260 262 262 260 260 266 274 274 273 278 282 281 280 279 278 278 280 281 278 276 275 275 274 273 272 271 270 269 268 268 268 268 268 269 269 270 270 271 272 272 273 273 273 273 272 272
269 269 266 264 263 261 259 260 263 264 263 258 248 248 251 251 256 260 260 259 259 261 267 272 272 268 269 271 268 266 266 263 260 255 251 255 259 260 262 263 263 266 268 267 267 267 265 266 271 276 278 278 278 279 279 280 283 284 282 281 279 278 277 276 275 273 272 272 272 272 272 272 272 272 273 274 274 275 275 275 275 275 275 275 275 274
267 267 269 269 266 263 262 264 265 262 261 257 249 250 255 259 263 264 263 263 261 260 263 268 269 267 271 272 267 266 269 264 259 254 249 252 257 261 265 266 266 269 272 274 275 273 267 265 268 274 277 276 277 279 280 281 281 280 280 281 279 276 276 276 276 275 274 275 275 275 275 274 274 275 276 277 278 278 279 278 278 278 277 277 277 276
271 270 271 269 265 263 263 264 265 264 265 264 262 262 263 264 265 264 265 265 261 260 261 265 268 267 263 262 265 271 272 265 261 258 255 257 261 263 265 267 268 269 271 273 274 275 273 271 272 275 276 276 277 279 280 280 278 275 275 278 278 276 275 276 277 276 275 275 275 275 275 276 277 277 278 279 280 280 281 280 280 280 280 279 279 277
271 271 271 268 265 264 265 266 266 265 264 261 261 261 260 262 262 261 264 266 263 263 263 264 267 264 259 264 270 272 271 269 267 266 265 266 268 267 267 268 270 270 269 272 274 275 275 276 277 278 275 274 277 278 279 279 276 272 273 277 277 276 274 275 276 276 275 274 273 273 274 275 276 278 280 281 281 281 281 281 281 280 280 279 279 278
269 269 270 270 269 267 266 267 268 264 262 261 261 260 261 262 263 262 264 264 265 268 268 267 268 264 260 267 271 268 268 271 271 270 269 270 270 270 270 269 269 269 270 272 273 273 272 272 275 276 273 273 275 278 279 278 274 272 274 274 275 275 274 273 274 273 272 271 271 271 272 274 277 279 280 281 281 281 281 281 281 280 279 279 278 278
270 269 270 271 271 270 269 269 269 267 266 265 264 264 264 265 266 266 265 263 266 270 270 269 271 268 263 264 268 269 269 270 270 271 272 273 272 271 270 269 267 267 267 268 269 270 270 269 270 271 271 272 273 275 277 276 274 275 275 271 273 278 277 273 271 270 269 269 269 270 272 274 277 279 280 281 281 281 281 281 280 279 278 278 278 278
269 270 271 271 271 272 272 271 269 267 267 267 266 266 266 267 267 266 264 264 268 270 270 271 273 272 265 260 265 273 274 271 269 269 269 270 269 270 270 269 268 269 268 267 267 267 268 268 267 267 268 269 269 270 272 273 274 275 274 272 275 280 277 270 268 269 269 268 267 268 270 272 275 277 279 279 279 279 279 279 278 278 278 278 279 280
275 273 272 271 271 272 272 271 269 267 265 264 264 265 267 267 266 264 263 265 267 267 269 270 272 273 270 264 266 272 273 271 269 267 267 268 268 268 268 268 268 269 269 267 266 265 265 265 265 265 265 266 267 267 268 270 272 273 273 273 276 279 274 268 267 267 266 265 265 266 268 270 272 274 274 275 275 276 277 277 277 277 279 280 281 283
280 276 272 269 267 267 269 270 269 267 266 265 265 266 266 265 263 262 264 267 267 267 270 273 273 274 273 268 266 268 269 270 270 270 269 270 270 269 269 270 269 268 267 266 264 262 262 262 262 263 263 264 265 267 267 267 268 268 269 270 273 277 273 267 266 265 262 263 264 265 267 267 267 268 269 270 272 273 275 276 276 278 279 280 283 286
279 277 276 274 270 267 267 267 268 269 269 268 268 268 266 264 263 264 266 268 268 269 272 273 272 271 272 270 267 267 269 271 272 272 271 271 270 271 271 271 270 269 268 267 265 263 261 261 261 261 261 261 263 265 266 265 264 264 265 266 269 274 272 265 262 260 259 261 263 264 264 263 262 264 265 267 270 272 273 275 276 277 278 279 282 288
275 277 280 280 276 272 269 268 268 268 268 268 267 266 265 266 268 270 270 270 269 270 270 269 268 269 271 271 269 267 268 269 270 271 271 271 272 272 271 271 270 269 269 268 267 266 264 261 260 260 259 259 260 261 263 263 262 261 262 263 265 268 269 264 257 255 255 258 261 262 261 260 260 261 262 264 267 269 271 273 275 276 277 277 281 289
274 276 277 278 277 277 276 274 271 270 269 266 264 265 268 272 272 271 270 269 269 269 269 269 269 270 269 267 267 267 267 268 270 271 271 272 272 272 271 270 270 269 268 267 267 267 265 263 262 260 259 258 258 259 260 261 261 260 259 261 261 264 266 262 254 252 254 256 258 259 258 259 259 259 260 262 264 267 269 271 274 275 275 276 282 292
273 273 273 274 275 276 277 277 276 275 273 268 268 272 275 276 273 270 269 270 271 271 270 269 269 269 268 266 267 268 268 269 271 272 273 273 273 272 271 270 269 268 268 267 265 264 264 262 261 260 259 258 257 258 259 259 260 259 257 258 258 259 262 258 251 250 253 253 255 257 257 259 260 259 260 261 263 266 267 270 274 275 275 277 285 293
271 271 271 272 273 274 275 278 278 275 274 275 278 279 276 274 274 273 274 274 274 273 273 272 271 270 269 268 269 270 270 271 272 273 274 273 272 270 268 267 267 266 265 264 262 261 260 259 259 259 259 258 255 254 255 256 257 257 256 256 256 255 257 256 250 250 252 251 251 255 257 259 260 259 260 262 263 265 267 270 274 275 275 279 287 293
271 270 270 271 272 273 274 276 275 273 275 280 280 275 273 274 276 276 276 275 274 274 274 275 274 273 272 273 272 272 272 271 272 273 273 270 267 265 264 265 265 263 262 261 260 259 258 258 259 258 259 260 258 255 253 252 253 254 253 253 254 253 254 254 250 249 250 247 248 254 257 258 259 259 261 262 263 265 268 271 274 275 276 281 287 292
272 271 270 270 271 272 273 273 274 274 275 276 275 274 276 277 276 275 275 274 274 274 273 273 273 273 274 275 275 275 274 273 274 273 272 268 264 264 266 267 265 261 260 262 262 261 260 260 262 262 260 260 260 258 255 252 251 250 249 249 251 251 251 252 248 244 245 246 251 257 257 257 258 259 260 262 264 266 268 270 273 275 278 282 286 290
272 272 272 270 270 270 270 270 273 275 274 273 275 276 277 275 273 273 273 273 272 272 270 270 271 272 274 274 272 271 273 276 278 276 272 269 267 267 268 267 265 264 264 265 265 265 265 265 266 264 261 259 260 259 257 255 252 250 247 246 247 248 250 251 248 243 244 252 259 262 258 257 259 260 261 263 264 266 269 271 273 275 278 282 286 290
270 270 271 270 270 271 271 271 273 274 275 276 277 276 275 275 274 274 273 272 272 271 270 270 271 271 272 271 270 271 274 278 279 277 274 271 271 271 269 269 269 270 269 267 267 268 268 266 266 266 261 259 260 258 255 255 254 251 247 244 246 250 251 250 249 250 254 260 262 261 258 258 261 262 263 265 266 268 270 272 273 276 279 283 286 290
275 275 274 274 274 276 277 277 277 278 277 278 279 278 277 277 276 276 276 275 274 274 275 275 274 273 272 272 273 275 276 277 276 274 274 274 274 272 270 269 272 273 272 270 268 268 266 264 265 266 261 259 260 258 253 252 253 250 245 244 248 252 251 249 249 253 259 262 260 257 256 259 262 264 265 266 268 270 272 273 275 277 281 284 287 290
273 270 269 272 275 277 278 279 280 281 280 279 279 279 277 277 277 277 277 276 277 278 279 278 277 276 277 278 278 278 278 278 276 274 274 274 275 273 270 269 271 272 271 270 267 266 266 266 266 266 263 260 258 256 252 250 251 248 244 243 249 252 249 246 248 252 256 258 257 255 257 261 264 265 266 267 269 271 273 274 276 279 283 286 288 289
268 260 257 262 267 269 270 272 274 276 278 278 277 277 277 279 280 278 277 278 280 280 280 280 280 280 281 281 282 282 282 282 280 278 276 273 272 273 272 269 270 273 275 271 267 264 266 267 267 266 264 261 256 252 250 249 248 245 239 239 246 250 247 246 249 252 254 255 256 259 263 265 266 266 267 268 270 272 274 275 278 282 285 287 288 289
272 267 261 258 258 258 259 263 267 270 272 273 272 271 272 274 275 276 277 278 280 281 281 282 282 282 283 283 284 285 285 283 282 281 278 273 270 271 272 270 271 276 278 274 268 264 264 267 267 264 262 262 257 250 245 245 245 243 240 237 239 242 243 244 247 250 253 257 260 264 267 268 267 266 266 268 271 273 275 278 281 284 287 288 289 290
276 275 271 265 261 260 261 263 265 267 268 268 266 267 268 267 268 271 273 275 278 280 280 280 281 282 282 284 284 284 284 283 282 281 278 272 270 271 272 272 273 276 277 274 268 264 265 267 266 263 262 264 259 249 242 238 233 230 231 233 235 239 244 246 247 250 255 260 264 267 268 267 266 264 265 268 271 274 277 281 283 286 288 289 290 291
278 276 274 271 269 267 265 265 265 266 267 267 267 268 268 266 266 268 269 270 273 275 276 277 278 279 281 283 283 283 282 282 282 280 277 273 272 274 274 274 274 275 276 272 265 264 268 268 266 266 266 260 249 241 235 228 219 215 219 227 233 242 250 251 251 255 260 263 265 266 265 264 264 265 268 271 273 276 280 283 285 287 288 289 290 291
275 272 270 269 267 265 266 269 270 269 268 268 267 268 268 267 266 266 266 267 268 270 271 273 276 278 279 280 281 281 282 282 280 280 278 274 272 275 277 275 274 276 277 273 267 266 268 266 265 269 261 240 231 229 221 210 209 211 216 224 233 242 250 252 254 258 261 262 262 262 262 264 266 269 272 275 278 281 284 286 287 288 289 290 291 291
272 270 269 269 269 268 270 273 273 271 267 265 263 263 265 267 267 266 266 268 268 269 270 273 276 277 277 278 280 280 281 280 277 277 280 277 272 275 278 275 274 277 278 276 271 267 262 259 262 264 248 224 220 223 215 204 205 212 221 231 238 244 249 251 254 256 257 258 258 259 263 267 270 274 277 280 283 285 286 287 288 289 290 291 292 293
274 273 272 272 272 271 271 270 268 267 265 263 262 262 264 265 267 268 269 269 269 269 270 272 274 275 276 278 280 280 282 280 274 274 280 279 274 274 275 273 275 278 281 283 278 267 261 260 255 247 231 216 214 215 214 213 216 223 232 236 237 241 246 248 249 251 252 255 258 263 267 272 276 279 281 283 285 286 288 289 290 291 292 294 295 296
277 276 276 275 272 270 269 268 266 264 264 264 265 266 266 267 267 268 270 271 269 268 270 272 272 270 271 276 280 283 284 279 271 269 276 279 274 271 270 270 275 279 281 280 268 248 251 250 226 198 196 216 213 208 214 224 231 234 231 226 227 234 241 243 243 246 251 257 262 267 272 276 279 281 283 285 287 288 289 291 292 294 296 297 298 297
279 278 278 277 273 270 270 270 268 266 264 265 267 268 268 269 270 268 268 271 271 268 268 270 269 266 267 275 285 289 286 279 271 268 274 278 273 266 264 267 271 272 264 252 240 238 250 239 206 190 200 211 202 200 216 229 232 226 217 216 224 231 233 236 241 247 255 261 265 270 274 277 280 283 286 288 289 291 292 294 296 298 299 299 299 298
282 280 279 277 274 272 271 269 268 266 265 263 262 262 265 270 272 267 264 267 271 270 268 266 264 263 266 278 292 295 286 276 271 271 274 275 269 263 262 263 261 259 252 240 238 252 264 243 209 198 209 211 204 205 213 215 211 207 209 216 223 227 231 239 246 250 255 261 266 270 274 278 283 287 290 291 293 295 297 298 300 301 301 301 300 300
283 282 280 277 275 274 272 269 267 268 266 260 254 254 260 268 270 264 260 263 269 270 266 263 262 264 268 278 292 297 288 276 270 271 273 270 264 260 258 254 250 251 250 242 240 252 259 242 213 193 197 209 213 208 203 200 200 204 212 218 222 229 237 244 249 253 257 261 267 271 276 282 287 291 293 296 298 301 301 302 302 302 302 302 302 303
Height
5752 5753 5754 5755 5755 5756 5756 5757 5757 5757 5759 5760 5760 5761 5762 5764 5765 5765 5765 5765 5764 5763 5763 5764 5765 5768 5772 5771 5769 5769 5768 5767 5768 5771 5773 5774 5772 5771 5772 5774 5774 5773 5773 5773 5773 5775 5778 5780 5783 5786 5785 5783 5782 5783 5784 5784 5784 5783 5783 5782 5782 5782 5781 5782 5782 5783 5783 5784 5785 5786 5786 5787 5788 5788 5788 5789 5789 5790 5791 5791 5791 5791 5792 5792 5792 5794
5750 5751 5753 5753 5752 5753 5754 5754 5755 5756 5757 5759 5759 5760 5760 5762 5763 5762 5762 5762 5762 5761 5761 5762 5762 5763 5767 5771 5770 5768 5765 5761 5762 5767 5770 5771 5770 5768 5769 5771 5771 5769 5769 5768 5768 5770 5773 5775 5779 5782 5782 5779 5778 5780 5780 5780 5780 5780 5780 5779 5779 5779 5778 5778 5779 5779 5780 5780 5781 5783 5783 5784 5784 5784 5785 5786 5786 5787 5788 5789 5789 5790 5790 5789 5790 5791
5748 5749 5750 5749 5749 5751 5751 5752 5753 5753 5755 5756 5756 5757 5758 5759 5761 5761 5760 5758 5758 5759 5758 5758 5760 5760 5761 5765 5769 5768 5766 5761 5756 5760 5766 5768 5768 5766 5766 5766 5767 5767 5766 5765 5764 5765 5767 5771 5775 5777 5778 5775 5774 5776 5777 5777 5777 5776 5777 5777 5776 5776 5775 5775 5775 5776 5777 5777 5778 5779 5780 5781 5781 5782 5782 5782 5783 5784 5785 5786 5787 5787 5788 5787 5788 5788
5745 5746 5746 5746 5747 5749 5749 5749 5749 5751 5753 5754 5753 5754 5755 5757 5758 5759 5757 5754 5754 5755 5755 5756 5758 5758 5758 5761 5764 5764 5763 5761 5755 5754 5760 5765 5765 5765 5763 5762 5763 5763 5764 5762 5761 5760 5761 5766 5771 5773 5773 5771 5771 5772 5773 5773 5773 5773 5774 5774 5774 5773 5772 5772 5771 5772 5773 5774 5774 5775 5776 5777 5778 5779 5779 5780 5780 5780 5781 5782 5783 5784 5785 5785 5786 5786
5742 5743 5743 5743 5745 5746 5746 5746 5747 5748 5749 5750 5751 5752 5753 5754 5755 5756 5754 5751 5751 5751 5751 5754 5754 5754 5756 5758 5760 5760 5759 5758 5756 5752 5754 5760 5763 5762 5761 5759 5758 5759 5760 5759 5758 5756 5756 5761 5766 5769 5769 5767 5767 5768 5768 5769 5769 5770 5771 5771 5771 5770 5770 5769 5769 5768 5769 5770 5771 5772 5773 5774 5774 5775 5776 5777 5777 5777 5778 5778 5779 5781 5782 5783 5783 5783
5738 5739 5740 5740 5742 5743 5743 5743 5744 5745 5746 5747 5748 5749 5750 5751 5752 5752 5751 5749 5748 5748 5749 5750 5748 5748 5753 5755 5755 5756 5755 5754 5755 5752 5751 5755 5759 5758 5757 5756 5755 5756 5756 5756 5755 5754 5753 5757 5761 5764 5764 5764 5763 5763 5764 5765 5766 5766 5767 5767 5768 5767 5767 5767 5766 5766 5766 5767 5768 5769 5770 5770 5771 5772 5773 5773 5774 5774 5775 5775 5776 5777 5778 5779 5780 5781
5735 5735 5736 5737 5739 5739 5740 5740 5741 5742 5743 5743 5745 5746 5746 5747 5748 5748 5748 5746 5744 5744 5746 5746 5744 5743 5748 5752 5751 5750 5751 5751 5751 5750 5749 5751 5754 5755 5754 5753 5752 5752 5753 5753 5753 5752 5751 5753 5757 5759 5760 5760 5760 5760 5760 5761 5762 5763 5763 5764 5765 5764 5764 5764 5764 5764 5763 5764 5765 5766 5767 5767 5768 5768 5769 5770 5771 5771 5772 5772 5773 5773 5774 5775 5776 5777
5733 5732 5733 5734 5735 5736 5736 5738 5738 5738 5738 5739 5741 5742 5742 5742 5743 5743 5743 5742 5740 5740 5742 5742 5742 5740 5743 5748 5748 5745 5746 5746 5746 5747 5747 5747 5748 5751 5751 5751 5750 5750 5750 5751 5750 5750 5749 5750 5752 5754 5756 5756 5756 5756 5757 5757 5758 5759 5760 5761 5761 5761 5761 5760 5761 5761 5761 5761 5761 5763 5764 5764 5765 5765 5766 5767 5768 5768 5769 5769 5770 5770 5771 5771 5772 5774
5730 5729 5729 5731 5732 5733 5734 5734 5734 5734 5734 5735 5736 5737 5738 5738 5738 5738 5738 5738 5737 5737 5738 5739 5739 5738 5740 5744 5743 5741 5742 5742 5741 5742 5744 5744 5744 5745 5747 5748 5749 5749 5748 5748 5748 5748 5747 5747 5749 5750 5752 5752 5752 5753 5753 5753 5753 5755 5756 5757 5758 5758 5758 5757 5758 5758 5758 5758 5758 5759 5760 5761 5761 5762 5762 5763 5764 5765 5766 5766 5767 5767 5767 5768 5768 5769
5728 5727 5726 5727 5729 5730 5731 5731 5731 5731 5731 5732 5732 5733 5734 5734 5734 5734 5734 5735 5735 5734 5735 5738 5737 5734 5736 5740 5740 5738 5739 5739 5738 5738 5739 5740 5740 5741 5743 5744 5745 5746 5746 5746 5745 5745 5746 5746 5746 5747 5748 5748 5748 5749 5749 5750 5750 5751 5752 5753 5754 5754 5754 5754 5754 5755 5755 5755 5755 5755 5756 5757 5758 5759 5759 5760 5760 5761 5762 5763 5764 5764 5764 5764 5765 5765
5726 5725 5724 5725 5727 5728 5729 5728 5728 5728 5728 5729 5729 5729 5730 5731 5731 5731 5731 5732 5731 5732 5734 5736 5735 5732 5732 5736 5737 5737 5737 5736 5735 5736 5736 5737 5737 5739 5740 5740 5741 5741 5742 5742 5742 5743 5743 5743 5743 5744 5744 5745 5745 5745 5746 5746 5746 5747 5748 5750 5750 5750 5751 5751 5751 5751 5752 5752 5752 5752 5752 5753 5754 5755 5756 5757 5757 5757 5758 5759 5760 5761 5761 5761 5762 5762
5723 5723 5723 5724 5725 5726 5726 5726 5725 5725 5725 5725 5726 5726 5727 5728 5728 5728 5729 5729 5728 5730 5732 5732 5732 5729 5728 5732 5735 5735 5735 5735 5734 5734 5734 5734 5734 5735 5737 5738 5738 5738 5738 5739 5739 5740 5740 5740 5741 5742 5741 5741 5742 5743 5743 5743 5743 5744 5745 5746 5746 5747 5748 5748 5747 5748 5749 5749 5749 5749 5749 5750 5751 5751 5752 5753 5754 5754 5755 5755 5756 5757 5757 5758 5758 5759
5720 5721 5721 5722 5723 5724 5723 5723 5723 5723 5723 5723 5724 5724 5724 5725 5725 5725 5725 5725 5725 5727 5729 5728 5728 5726 5725 5729 5732 5733 5732 5732 5732 5733 5733 5732 5731 5731 5733 5735 5735 5735 5736 5736 5736 5737 5738 5738 5738 5740 5739 5738 5739 5740 5740 5740 5740 5741 5741 5742 5743 5743 5744 5745 5744 5744 5745 5746 5746 5747 5746 5746 5747 5748 5748 5750 5750 5751 5751 5752 5753 5753 5754 5754 5755 5755
5718 5719 5719 5719 5720 5720 5721 5721 5721 5721 5721 5721 5721 5722 5722 5722 5722 5722 5722 5722 5722 5723 5724 5724 5724 5724 5725 5727 5729 5731 5730 5730 5730 5730 5731 5731 5730 5728 5728 5730 5730 5730 5731 5731 5731 5732 5734 5735 5735 5736 5736 5736 5736 5736 5736 5736 5737 5737 5738 5739 5739 5740 5741 5742 5742 5742 5742 5742 5743 5743 5743 5743 5744 5744 5745 5746 5747 5747 5748 5748 5749 5749 5750 5751 5751 5752
5715 5716 5717 5717 5717 5717 5717 5719 5719 5719 5718 5718 5719 5719 5719 5720 5720 5720 5720 5720 5720 5720 5720 5721 5721 5722 5723 5725 5727 5728 5728 5728 5729 5728 5727 5727 5728 5727 5725 5725 5726 5726 5726 5726 5726 5726 5728 5730 5731 5732 5733 5732 5732 5733 5733 5732 5733 5733 5733 5734 5735 5736 5737 5738 5739 5739 5739 5739 5739 5740 5740 5740 5740 5741 5741 5742 5742 5743 5744 5744 5745 5745 5746 5746 5747 5748
5712 5713 5714 5715 5715 5714 5715 5716 5717 5717 5717 5716 5716 5716 5716 5717 5717 5717 5718 5718 5718 5717 5718 5719 5720 5720 5722 5723 5725 5727 5727 5727 5727 5726 5725 5724 5725 5725 5724 5723 5722 5722 5722 5722 5721 5721 5722 5724 5726 5728 5729 5728 5728 5728 5728 5728 5728 5729 5729 5730 5731 5732 5733 5735 5735 5735 5735 5735 5736 5736 5737 5737 5737 5737 5737 5738 5738 5739 5739 5739 5740 5741 5741 5742 5742 5743
5708 5710 5711 5712 5712 5713 5714 5714 5713 5713 5715 5715 5714 5714 5715 5715 5715 5714 5714 5714 5714 5714 5715 5717 5718 5719 5720 5720 5723 5724 5725 5725 5724 5724 5723 5722 5721 5721 5721 5720 5719 5719 5720 5718 5716 5717 5718 5718 5720 5722 5724 5724 5724 5724 5724 5724 5724 5725 5725 5726 5727 5727 5729 5730 5731 5731 5731 5732 5732 5732 5733 5733 5733 5734 5734 5734 5734 5735 5735 5735 5735 5736 5737 5737 5737 5738
5705 5707 5709 5709 5709 5711 5712 5711 5710 5710 5711 5713 5713 5713 5713 5713 5713 5712 5711 5710 5710 5710 5711 5714 5715 5716 5717 5718 5720 5721 5720 5719 5719 5719 5719 5718 5717 5716 5715 5716 5716 5716 5717 5715 5713 5713 5715 5715 5715 5716 5718 5719 5720 5720 5720 5719 5720 5721 5721 5722 5722 5723 5724 5726 5727 5727 5727 5728 5728 5728 5729 5729 5730 5730 5730 5730 5730 5731 5731 5731 5731 5731 5732 5732 5732 5732
5702 5704 5706 5707 5707 5708 5708 5707 5707 5707 5708 5710 5711 5711 5711 5710 5710 5709 5708 5707 5707 5706 5707 5709 5710 5712 5714 5715 5717 5717 5714 5713 5713 5713 5713 5713 5712 5711 5711 5710 5711 5712 5713 5713 5711 5709 5710 5712 5712 5712 5714 5715 5716 5716 5716 5715 5716 5716 5717 5717 5717 5718 5720 5721 5723 5723 5723 5723 5724 5724 5724 5725 5725 5726 5726 5726 5726 5726 5726 5726 5726 5726 5726 5727 5727 5727
5699 5699 5701 5703 5705 5704 5704 5704 5704 5705 5706 5707 5707 5706 5707 5707 5706 5706 5705 5704 5703 5702 5703 5704 5705 5709 5711 5711 5711 5710 5708 5708 5709 5709 5709 5708 5708 5708 5708 5706 5705 5707 5709 5710 5709 5706 5707 5708 5709 5709 5710 5711 5712 5713 5712 5712 5712 5712 5712 5713 5713 5714 5715 5717 5718 5719 5719 5719 5719 5720 5720 5720 5721 5721 5721 5721 5721 5721 5721 5721 5721 5721 5721 5721 5721 5722
5695 5694 5694 5698 5701 5700 5701 5702 5703 5703 5703 5703 5702 5702 5702 5702 5702 5701 5700 5700 5700 5699 5699 5699 5700 5705 5707 5707 5706 5704 5704 5705 5706 5705 5705 5705 5705 5705 5704 5703 5702 5702 5704 5706 5706 5704 5703 5704 5705 5705 5706 5708 5709 5710 5710 5710 5710 5709 5709 5709 5710 5710 5711 5712 5713 5714 5714 5714 5715 5715 5715 5716 5716 5716 5716 5716 5716 5716 5716 5716 5716 5716 5716 5716 5716 5716
5690 5690 5690 5693 5695 5696 5696 5698 5698 5698 5697 5698 5698 5698 5698 5697 5696 5696 5695 5696 5696 5694 5695 5695 5695 5700 5704 5703 5700 5699 5700 5702 5701 5701 5701 5700 5700 5700 5699 5699 5699 5699 5700 5701 5702 5702 5700 5700 5701 5702 5702 5703 5705 5706 5707 5707 5707 5706 5706 5705 5706 5706 5707 5708 5708 5709 5709 5709 5710 5710 5711 5711 5711 5711 5711 5711 5711 5711 5711 5711 5711 5711 5711 5710 5710 5710
5685 5686 5687 5687 5688 5689 5691 5692 5693 5693 5693 5693 5693 5693 5693 5691 5691 5690 5688 5691 5691 5690 5691 5690 5689 5696 5701 5698 5695 5696 5696 5697 5697 5696 5695 5694 5695 5696 5695 5696 5696 5696 5696 5697 5698 5698 5697 5696 5697 5698 5698 5699 5700 5701 5703 5704 5704 5703 5702 5702 5702 5702 5702 5703 5704 5704 5705 5705 5705 5705 5706 5706 5706 5706 5706 5706 5706 5706 5706 5705 5705 5705 5705 5705 5704 5704
5681 5681 5681 5681 5682 5683 5685 5686 5688 5688 5687 5687 5688 5688 5687 5686 5686 5684 5682 5684 5685 5684 5687 5685 5684 5692 5697 5693 5691 5693 5693 5692 5692 5691 5689 5688 5690 5692 5693 5693 5692 5692 5692 5693 5693 5693 5693 5692 5692 5693 5694 5694 5694 5695 5696 5698 5699 5698 5698 5697 5698 5698 5698 5698 5699 5699 5700 5700 5700 5700 5701 5701 5701 5701 5701 5701 5701 5701 5701 5700 5700 5699 5699 5699 5698 5698
5676 5675 5675 5675 5676 5678 5679 5681 5682 5682 5681 5681 5682 5683 5682 5682 5681 5680 5678 5678 5677 5679 5681 5678 5678 5687 5692 5689 5687 5688 5688 5687 5685 5683 5682 5683 5685 5686 5687 5688 5687 5687 5688 5688 5688 5688 5688 5688 5688 5688 5687 5688 5688 5688 5689 5691 5693 5693 5693 5692 5692 5693 5693 5693 5694 5694 5694 5695 5695 5695 5696 5696 5696 5696 5696 5696 5695 5695 5695 5695 5694 5694 5693 5693 5692 5692
5670 5670 5670 5670 5670 5671 5673 5675 5676 5675 5675 5676 5677 5677 5678 5678 5677 5675 5674 5672 5672 5674 5674 5672 5673 5681 5686 5684 5682 5683 5683 5682 5679 5677 5677 5678 5678 5679 5680 5681 5682 5682 5683 5683 5682 5682 5682 5683 5683 5683 5682 5682 5682 5682 5683 5685 5686 5688 5689 5688 5688 5688 5688 5688 5688 5689 5689 5690 5690 5690 5690 5690 5690 5690 5690 5690 5690 5689 5689 5689 5689 5688 5688 5687 5687 5686
5664 5665 5666 5665 5665 5665 5666 5668 5669 5669 5669 5669 5670 5671 5672 5673 5672 5669 5667 5667 5668 5667 5667 5669 5669 5672 5677 5679 5679 5678 5676 5673 5671 5671 5672 5672 5672 5673 5673 5674 5675 5676 5677 5678 5677 5677 5676 5677 5677 5678 5677 5676 5676 5677 5677 5679 5680 5681 5682 5683 5683 5682 5681 5681 5682 5683 5683 5684 5684 5684 5684 5684 5684 5684 5684 5684 5684 5684 5684 5683 5683 5683 5682 5681 5681 5680
5659 5660 5660 5659 5660 5660 5659 5660 5661 5661 5662 5663 5664 5665 5667 5667 5664 5662 5661 5662 5663 5660 5660 5665 5665 5663 5669 5675 5676 5672 5666 5662 5662 5664 5664 5665 5666 5666 5666 5667 5669 5669 5670 5671 5671 5671 5671 5671 5671 5671 5671 5670 5669 5670 5671 5673 5674 5675 5675 5677 5677 5676 5675 5674 5675 5676 5676 5677 5678 5678 5678 5678 5679 5679 5678 5678 5678 5678 5678 5678 5677 5677 5676 5676 5675 5675
5650 5651 5652 5653 5654 5655 5653 5653 5653 5653 5655 5656 5658 5660 5661 5660 5656 5655 5656 5657 5657 5653 5654 5660 5660 5657 5662 5668 5668 5663 5656 5654 5655 5655 5657 5658 5659 5659 5659 5660 5661 5661 5662 5662 5663 5664 5664 5663 5663 5664 5664 5663 5661 5662 5664 5667 5668 5668 5669 5670 5671 5671 5671 5669 5668 5669 5669 5670 5672 5672 5673 5673 5673 5673 5673 5673 5673 5673 5673 5672 5672 5672 5671 5671 5670 5670
5643 5643 5644 5645 5648 5649 5647 5646 5646 5647 5648 5650 5653 5654 5653 5650 5650 5651 5651 5652 5651 5649 5650 5653 5652 5651 5656 5659 5657 5654 5650 5648 5648 5648 5649 5651 5651 5652 5653 5652 5652 5652 5653 5653 5654 5655 5656 5656 5655 5657 5658 5657 5656 5654 5655 5658 5661 5661 5662 5663 5664 5666 5666 5664 5662 5662 5663 5664 5666 5666 5667 5667 5667 5667 5667 5667 5667 5667 5667 5667 5666 5666 5666 5665 5665 5664
5638 5638 5637 5637 5639 5640 5640 5640 5641 5642 5642 5644 5647 5646 5643 5643 5645 5646 5646 5646 5645 5643 5644 5644 5642 5645 5651 5649 5645 5645 5645 5642 5641 5642 5643 5644 5645 5645 5645 5644 5644 5644 5644 5644 5644 5645 5647 5648 5648 5649 5650 5651 5650 5649 5648 5650 5652 5653 5655 5657 5658 5659 5660 5658 5655 5655 5655 5657 5659 5660 5660 5661 5661 5661 5661 5661 5661 5661 5661 5661 5661 5660 5660 5660 5659 5658
5634 5634 5633 5631 5630 5632 5631 5632 5634 5635 5636 5638 5639 5639 5637 5638 5639 5639 5639 5639 5638 5636 5637 5636 5635 5639 5643 5640 5635 5637 5638 5637 5636 5636 5637 5637 5637 5636 5635 5635 5634 5634 5635 5636 5636 5636 5637 5638 5639 5639 5641 5643 5643 5642 5641 5642 5644 5645 5647 5650 5650 5652 5653 5653 5651 5649 5649 5650 5652 5653 5654 5654 5654 5655 5655 5655 5655 5655 5655 5655 5655 5655 5654 5654 5653 5652
5630 5629 5629 5626 5625 5626 5624 5624 5627 5628 5628 5630 5633 5633 5632 5631 5630 5631 5632 5632 5631 5630 5629 5628 5629 5631 5632 5630 5628 5629 5632 5632 5630 5629 5629 5629 5628 5627 5625 5625 5625 5626 5627 5627 5627 5627 5627 5628 5628 5629 5631 5633 5635 5635 5634 5634 5635 5637 5640 5642 5643 5644 5647 5649 5647 5644 5643 5644 5645 5647 5647 5648 5648 5649 5649 5649 5649 5649 5649 5649 5649 5649 5648 5648 5647 5646
5624 5623 5623 5621 5620 5621 5619 5618 5620 5620 5621 5624 5626 5625 5623 5622 5623 5624 5625 5626 5624 5622 5620 5621 5622 5622 5622 5622 5622 5623 5624 5625 5624 5622 5622 5620 5619 5617 5616 5616 5617 5618 5618 5618 5618 5618 5618 5618 5619 5620 5621 5622 5625 5626 5625 5625 5626 5628 5631 5634 5636 5637 5640 5643 5641 5637 5637 5638 5639 5640 5641 5642 5642 5643 5643 5643 5643 5643 5643 5643 5643 5642 5642 5642 5641 5640
5618 5617 5617 5616 5614 5615 5615 5612 5611 5614 5618 5620 5617 5615 5616 5617 5617 5617 5618 5619 5617 5614 5614 5614 5613 5613 5613 5614 5614 5614 5615 5617 5617 5616 5614 5611 5609 5607 5608 5610 5610 5610 5610 5610 5609 5609 5610 5609 5610 5612 5613 5613 5614 5615 5616 5616 5617 5619 5622 5626 5628 5629 5633 5636 5634 5631 5631 5632 5634 5635 5636 5636 5636 5636 5636 5636 5637 5637 5637 5637 5636 5636 5636 5635 5634 5633
5611 5611 5611 5610 5609 5609 5609 5606 5603 5607 5614 5613 5608 5607 5611 5612 5611 5609 5610 5612 5610 5608 5608 5607 5606 5606 5606 5606 5606 5605 5606 5609 5611 5610 5606 5602 5601 5601 5601 5603 5603 5602 5602 5602 5601 5602 5602 5602 5602 5603 5605 5605 5605 5606 5607 5607 5608 5611 5614 5617 5620 5622 5624 5627 5626 5624 5625 5626 5628 5629 5630 5630 5630 5630 5630 5631 5631 5631 5630 5630 5630 5630 5630 5629 5628 5626
5604 5604 5604 5603 5603 5603 5602 5601 5599 5601 5606 5606 5603 5603 5605 5604 5604 5603 5603 5605 5603 5602 5602 5601 5600 5600 5600 5600 5599 5598 5598 5600 5603 5603 5599 5595 5595 5595 5595 5594 5594 5594 5595 5594 5593 5593 5594 5594 5595 5595 5596 5596 5597 5598 5599 5598 5600 5603 5605 5608 5612 5614 5617 5619 5619 5618 5619 5620 5622 5624 5624 5623 5623 5624 5624 5625 5625 5625 5625 5624 5624 5624 5623 5622 5620 5618
5599 5599 5598 5597 5597 5597 5595 5595 5594 5594 5598 5599 5597 5597 5597 5597 5596 5596 5596 5597 5596 5595 5595 5595 5594 5593 5594 5593 5592 5592 5591 5591 5593 5595 5592 5588 5588 5588 5587 5587 5587 5587 5586 5585 5585 5585 5585 5586 5586 5587 5587 5587 5588 5589 5591 5592 5593 5596 5598 5601 5605 5608 5611 5612 5612 5612 5614 5616 5617 5618 5617 5617 5617 5618 5619 5619 5619 5619 5619 5619 5618 5618 5616 5615 5613 5611
5592 5592 5592 5590 5590 5591 5589 5589 5588 5589 5592 5592 5590 5590 5590 5589 5589 5589 5588 5589 5589 5588 5587 5587 5587 5586 5586 5586 5585 5585 5584 5583 5585 5586 5584 5582 5582 5581 5580 5581 5581 5579 5579 5578 5577 5578 5578 5578 5579 5579 5579 5580 5580 5581 5583 5585 5587 5589 5591 5595 5599 5602 5603 5603 5604 5607 5610 5612 5612 5611 5610 5611 5612 5613 5613 5613 5613 5613 5613 5613 5612 5611 5609 5608 5606 5604
5588 5587 5585 5584 5584 5585 5584 5583 5583 5583 5585 5585 5584 5584 5584 5583 5583 5583 5581 5581 5582 5581 5579 5579 5579 5579 5578 5578 5578 5578 5576 5575 5577 5578 5577 5576 5575 5574 5574 5574 5574 5573 5572 5571 5571 5571 5571 5571 5572 5572 5571 5572 5573 5573 5575 5578 5580 5583 5586 5590 5593 5595 5594 5594 5598 5603 5606 5606 5605 5604 5605 5606 5607 5607 5607 5607 5608 5608 5608 5607 5606 5604 5603 5601 5599 5596
5584 5583 5581 5580 5580 5581 5580 5579 5579 5579 5579 5579 5580 5579 5579 5578 5577 5576 5574 5574 5575 5574 5572 5572 5572 5572 5571 5570 5570 5571 5570 5569 5569 5570 5570 5569 5569 5569 5569 5568 5567 5567 5566 5565 5565 5565 5565 5565 5565 5565 5565 5565 5566 5566 5567 5571 5574 5576 5581 5586 5588 5587 5586 5588 5594 5598 5598 5598 5597 5598 5599 5601 5601 5601 5602 5602 5603 5602 5602 5601 5599 5598 5596 5594 5591 5589
5577 5577 5577 5576 5575 5576 5575 5574 5575 5574 5573 5574 5574 5574 5574 5573 5570 5569 5569 5568 5568 5568 5566 5566 5566 5565 5565 5564 5564 5564 5564 5563 5562 5562 5562 5562 5563 5563 5563 5562 5562 5562 5561 5559 5559 5560 5560 5559 5559 5559 5560 5560 5560 5561 5563 5565 5568 5572 5576 5580 5581 5581 5581 5585 5589 5590 5590 5590 5591 5593 5595 5596 5596 5597 5597 5597 5597 5597 5596 5595 5593 5591 5589 5587 5584 5581
5571 5570 5570 5570 5570 5570 5570 5569 5569 5569 5568 5568 5568 5567 5567 5566 5564 5563 5563 5563 5563 5562 5560 5560 5560 5560 5559 5559 5558 5558 5558 5556 5555 5555 5555 5555 5556 5557 5557 5556 5556 5556 5556 5555 5554 5554 5555 5555 5554 5555 5555 5555 5555 5557 5559 5562 5565 5567 5569 5572 5575 5577 5579 5581 5582 5583 5583 5584 5587 5589 5590 5591 5592 5592 5592 5592 5592 5591 5590 5588 5586 5584 5582 5580 5577 5575
5565 5564 5563 5563 5563 5562 5562 5562 5563 5563 5563 5563 5562 5561 5560 5560 5558 5557 5557 5558 5558 5556 5555 5555 5555 5555 5554 5554 5553 5553 5552 5550 5550 5549 5549 5550 5550 5551 5551 5551 5551 5551 5551 5550 5549 5550 5550 5551 5551 5551 5551 5552 5552 5554 5556 5558 5560 5561 5564 5567 5572 5575 5576 5575 5576 5577 5579 5581 5583 5584 5586 5586 5587 5587 5587 5587 5587 5585 5584 5582 5580 5578 5575 5573 5571 5568
5558 5556 5554 5554 5555 5554 5554 5556 5557 5557 5557 5557 5555 5553 5552 5552 5551 5550 5550 5551 5551 5551 5550 5549 5549 5549 5549 5548 5548 5547 5546 5545 5545 5544 5544 5545 5546 5546 5546 5546 5546 5546 5547 5546 5545 5546 5547 5547 5547 5548 5548 5549 5550 5552 5553 5555 5556 5559 5562 5565 5568 5570 5571 5571 5572 5574 5576 5578 5579 5580 5581 5582 5582 5582 5582 5582 5581 5580 5578 5576 5574 5571 5569 5567 5564 5562
5550 5548 5547 5548 5548 5547 5548 5550 5550 5550 5550 5549 5547 5546 5545 5543 5542 5542 5544 5544 5544 5544 5544 5544 5543 5544 5543 5543 5543 5542 5541 5540 5540 5540 5540 5541 5541 5541 5542 5542 5542 5542 5543 5543 5542 5542 5543 5544 5545 5545 5545 5545 5547 5549 5550 5551 5553 5557 5560 5562 5563 5564 5565 5567 5569 5571 5573 5574 5575 5577 5577 5577 5578 5578 5578 5577 5576 5574 5572 5570 5568 5565 5563 5560 5558 5555
5542 5540 5541 5542 5541 5540 5541 5543 5543 5541 5540 5539 5539 5539 5538 5536 5535 5535 5536 5537 5537 5538 5538 5538 5537 5538 5538 5538 5538 5537 5536 5535 5535 5536 5537 5536 5537 5537 5537 5538 5538 5539 5540 5540 5540 5539 5539 5540 5542 5543 5542 5542 5544 5546 5547 5549 5552 5554 5556 5557 5558 5560 5562 5565 5567 5569 5571 5571 5572 5573 5573 5574 5574 5573 5573 5572 5570 5569 5567 5564 5562 5559 5556 5554 5551 5549
5534 5532 5533 5535 5533 5531 5531 5534 5535 5533 5532 5531 5531 5531 5531 5530 5529 5529 5529 5530 5530 5531 5532 5532 5532 5532 5533 5533 5533 5532 5532 5531 5530 5531 5532 5532 5533 5533 5534 5535 5536 5537 5538 5539 5538 5538 5537 5537 5539 5540 5539 5540 5542 5544 5545 5547 5550 5551 5552 5553 5554 5557 5560 5562 5565 5566 5567 5568 5569 5570 5570 5570 5570 5569 5568 5567 5565 5563 5561 5559 5556 5553 5551 5548 5546 5543
5527 5525 5526 5525 5523 5523 5524 5525 5525 5524 5524 5525 5524 5524 5523 5523 5523 5523 5523 5524 5524 5525 5526 5526 5527 5527 5528 5529 5528 5528 5527 5526 5526 5527 5528 5528 5529 5529 5530 5532 5533 5534 5536 5537 5536 5537 5537 5537 5537 5537 5537 5538 5540 5541 5542 5545 5546 5547 5548 5549 5552 5555 5558 5560 5562 5563 5564 5564 5565 5566 5566 5566 5566 5565 5563 5562 5560 5559 5556 5554 5551 5548 5545 5543 5541 5538
5520 5519 5519 5517 5514 5514 5517 5518 5516 5514 5516 5519 5518 5517 5517 5517 5516 5517 5518 5518 5519 5519 5520 5521 5522 5523 5524 5525 5524 5524 5523 5522 5522 5523 5524 5525 5525 5526 5527 5529 5530 5531 5532 5533 5533 5534 5535 5536 5536 5537 5537 5537 5537 5539 5541 5543 5544 5545 5546 5548 5551 5554 5555 5557 5559 5560 5560 5561 5562 5562 5563 5562 5562 5560 5558 5557 5556 5554 5551 5548 5546 5544 5541 5538 5536 5533
5514 5513 5513 5510 5507 5508 5510 5511 5509 5508 5509 5512 5513 5512 5512 5512 5511 5512 5513 5514 5514 5515 5515 5517 5518 5519 5520 5520 5520 5519 5518 5518 5519 5519 5520 5521 5521 5522 5523 5525 5526 5527 5528 5529 5531 5532 5533 5534 5535 5537 5537 5536 5536 5537 5540 5542 5543 5544 5545 5547 5549 5551 5553 5554 5555 5556 5557 5558 5558 5559 5559 5559 5558 5556 5554 5552 5551 5549 5546 5543 5541 5540 5538 5535 5532 5528